Flag for U.S.A. Weather past 2 weeks in Kennebunk, Maine, U.S.A.

Now
39 °F

Passing clouds.


Feels Like: 32 °F
Forecast: 33 / 42 °F
Wind: 10 mph from West

Location: Sanford Municipal

Current Time: Dec 18, 2014 at 3:34:40 AM

Latest Report: Dec 18, 2014 at 2:55 AM


Visibility: 10 mi

Pressure: 29.65 "Hg

Humidity: 70%

Dew point: 30 °F

Location of KennebunkLocation

Historic Weather in Kennebunk — Graph

°F

Kennebunk temperature yesterday

Maximum temperature yesterday: 41 °F (at 1:35 PM)
Minimum temperature yesterday: 34 °F (at 12:15 AM)
Average temperature yesterday: 38 °F

Past Weeks' High & Low Weather Summary

 TemperatureHumidityPressure
High43 °F (Dec 14, 12:35 PM)100% (Dec 11, 9:15 PM)30.82 "Hg (Dec 11, 9:15 PM)
Low10 °F (Dec 5, 1:55 AM)22% (Dec 7, 3:55 PM)29.43 "Hg (Dec 11, 12:55 AM)
Average30 °F73%30.06 "Hg
* Reported Dec 3 2:15 AM — Dec 18 2:35 AM, Kennebunk, Weather by CustomWeather, © 2014

Note: Actual official high and low records may vary slightly from our data, if they occured in-between our weather recording intervals... More about our weather records

Advertising

Kennebunk weather history for previous 24 hours

 ConditionsComfort  
Time TempWeatherWind HumidityBarometerVisibility
2:35 AM
Dec 18
39 °FClear.10 mph75%29.65 "Hg10 mi
2:15 AM39 °FPassing clouds.13 mph70%29.65 "Hg10 mi
1:55 AM39 °FPassing clouds.10 mph75%29.65 "Hg10 mi
1:35 AM39 °FClear.12 mph81%29.65 "Hg10 mi
1:15 AM39 °FClear.9 mph75%29.65 "Hg10 mi
12:55 AM39 °FPassing clouds.8 mph75%29.65 "Hg10 mi
12:35 AM39 °FPassing clouds.8 mph75%29.65 "Hg10 mi
12:15 AM39 °FPassing clouds.7 mph75%29.66 "Hg10 mi
11:55 PM
Dec 17
37 °FMostly cloudy.5 mph93%29.66 "Hg10 mi
11:35 PM37 °FOvercast.No wind87%29.66 "Hg10 mi
11:15 PM37 °FPartly cloudy.No wind87%29.67 "Hg10 mi
10:35 PM37 °FMostly cloudy.3 mph87%29.68 "Hg10 mi
10:15 PM37 °FMostly cloudy.5 mph87%29.67 "Hg10 mi
9:55 PM37 °FOvercast.3 mph87%29.68 "Hg10 mi
9:35 PM37 °FOvercast.3 mph87%29.68 "Hg10 mi
9:15 PM37 °FOvercast.5 mph87%29.69 "Hg10 mi
8:55 PM39 °FOvercast.5 mph81%29.69 "Hg10 mi
8:35 PM39 °FMostly cloudy.6 mph81%29.69 "Hg10 mi
8:15 PM39 °FOvercast.5 mph81%29.70 "Hg10 mi
7:55 PM39 °FOvercast.6 mph81%29.70 "Hg10 mi
7:35 PM39 °FOvercast.6 mph81%29.70 "Hg10 mi
6:55 PM39 °FOvercast.8 mph81%29.70 "Hg10 mi
6:35 PM39 °FOvercast.5 mph81%29.70 "Hg10 mi
6:15 PM39 °FOvercast.7 mph87%29.70 "Hg10 mi
5:35 PM39 °FOvercast.9 mph81%29.69 "Hg10 mi
5:15 PM39 °FMostly cloudy.8 mph87%29.69 "Hg10 mi
4:55 PM39 °FPassing clouds.8 mph81%29.68 "Hg10 mi
4:35 PM39 °FPassing clouds.9 mph87%29.68 "Hg10 mi
4:15 PM41 °FOvercast.9 mph81%29.68 "Hg10 mi
3:55 PM41 °FOvercast.9 mph76%29.67 "Hg10 mi
3:35 PM41 °FCloudy.9 mph87%29.68 "Hg6 mi
3:15 PM41 °FMostly cloudy.8 mph81%29.68 "Hg5 mi
2:55 PM41 °FMostly cloudy.9 mph81%29.67 "Hg4 mi
2:35 PM41 °FLow clouds.12 mph87%29.67 "Hg3 mi
2:15 PM41 °FLow clouds.13 mph81%29.66 "Hg3 mi
1:55 PM41 °FLow clouds.14 mph81%29.66 "Hg3 mi
1:35 PM41 °FLow clouds.14 mph87%29.66 "Hg2 mi
1:15 PM39 °FLow clouds.14 mph87%29.66 "Hg2 mi
12:55 PM39 °FLow clouds.12 mph87%29.66 "Hg2 mi
12:35 PM39 °FLow clouds.10 mph87%29.67 "Hg7 mi
12:15 PM39 °FLow clouds.14 mph87%29.67 "Hg10 mi
11:55 AM39 °FLow clouds.12 mph81%29.68 "Hg5 mi
11:35 AM39 °FLow clouds.12 mph81%29.69 "Hg3 mi
11:15 AM39 °FLow clouds.12 mph87%29.71 "Hg3 mi
10:55 AM39 °FLow clouds.13 mph87%29.72 "Hg5 mi
10:35 AM39 °FLow clouds.9 mph81%29.73 "Hg5 mi
10:15 AM39 °FLow clouds.9 mph81%29.73 "Hg10 mi
9:55 AM37 °FLow clouds.9 mph87%29.74 "Hg10 mi
9:35 AM37 °FLow clouds.12 mph87%29.75 "Hg5 mi
9:15 AM37 °FLow clouds.10 mph87%29.76 "Hg5 mi
8:55 AM37 °FLow clouds.12 mph87%29.76 "Hg9 mi
8:35 AM37 °FLow clouds.12 mph81%29.77 "Hg10 mi
8:15 AM36 °FLow clouds.10 mph81%29.78 "Hg10 mi
7:55 AM36 °FLow clouds.10 mph81%29.78 "Hg6 mi
7:35 AM36 °FLow clouds.14 mph81%29.79 "Hg5 mi
7:15 AM36 °FLow clouds.10 mph81%29.80 "Hg6 mi
6:55 AM36 °FLow clouds.10 mph87%29.81 "Hg8 mi
6:35 AM36 °FLow clouds.8 mph93%29.82 "Hg9 mi
5:55 AM36 °FLow clouds.7 mph87%29.84 "Hg5 mi
5:35 AM36 °FLow clouds.6 mph81%29.85 "Hg3 mi
5:15 AM36 °FLow clouds.8 mph81%29.85 "Hg2 mi
4:55 AM36 °FLow clouds.7 mph81%29.85 "Hg2 mi
4:35 AM36 °FLow clouds.7 mph81%29.85 "Hg2 mi
4:15 AM36 °FLow clouds.7 mph81%29.86 "Hg2 mi
3:55 AM36 °FLow clouds.6 mph81%29.88 "Hg3 mi
3:35 AM34 °FLow clouds.7 mph87%29.88 "Hg2 mi
3:15 AM34 °FLow clouds.8 mph81%29.89 "Hg1 mi
Weather by CustomWeather, © 2014

See weather overviewHow to use our weather pages